Weather in Ogarkovo

Russia / Yaroslavl Oblast     58°14′14″N   38°51′54″E
temp.,
°C
wind,
m/s
gust,
m/s
humid.,
%
clouds,
%
prec.,
mm/h
press.,
hPa
HPBL,
m
18 september, sat
sat1800:00+8nne4563100 0.0 1023883
03:00+7ne568260 0.1 1024506
06:00+6ne468418 0.0 1025361
09:00+7ne5680100 0.1 1026518
12:00+8ne556026 0.0 10261116
15:00+9nne445112 0.0 10261339
18:00+8ne56589 0.0 1026934
21:00+6ene69705 0.0 1026515
19 september, sun
sun1900:00+4e69787 0.0 1027362
03:00+3e5879100 0.0 1027278
06:00+3e5778100 0.0 1028245
09:00+5e5768100 0.0 1028392
12:00+7e5658100 0.0 10271098
15:00+9e6753100 0.0 10261278
18:00+8e6960100 0.0 1026921
21:00+6ene71172100 0.0 1026619
20 september, mon
mon2000:00+4ene91379100 0.0 1027512
03:00+3e91381100 0.0 1027512
06:00+2e9148097 0.0 1027580
09:00+4e91370100 0.0 1027750
12:00+6e9105793 0.0 10261100
15:00+8e81055100 0.0 10251225
18:00+7e8126079 0.0 10251058
21:00+6e8136586 0.0 1024962
21 september, tue
tue2100:00+5e81370100 0.0 1024799
03:00+5e8137295 0.0 1022770
06:00+5ene91476100 0.0 1021614
09:00+5e91472100 0.1 1020714
12:00+6e91381100 0.8 1019886
15:00+5ene91497100 3.6 1018798
18:00+5ene81394100 2.1 1017820
21:00+5ene81295100 4.2 1017743
22 september, wed
wed2200:00+6ene81193100 0.6 1016634
03:00+6ene71093100 0.9 1015570
06:00+6ene71192100 1.8 1015616
09:00+6ene71194100 5.5 1014620
12:00+6ene71292100 3.9 1014693
15:00+7ene71192100 6.8 1014838
18:00+7ene61092100 1.3 1013832
21:00+7e6992100 4.7 10131015